Weather History for Redding, CA

Change the Weather History Date:

Wednesday, February 13, 2013

  Actual Average Record
Temperature  
Mean Temperature 53 °F -  
Max Temperature 73 °F 59 °F 77 °F (2006)
Min Temperature 32 °F 39 °F 25 °F (1990)
Degree Days  
Heating Degree Days 12    
Cooling Degree Days 0    
Growing Degree Days 2 (Base 50)    
Moisture  
Dew Point 31 °F    
Average Humidity 53    
Maximum Humidity 82    
Minimum Humidity 24    
Precipitation  
Precipitation 0.00 in 0.19 in 1.71 in (2000)
Month to date precipitation 0.53 2.59  
Year to date precipitation 1.46 8.55  
Since 1 July precipitation 20.62 22.31  
Sea Level Pressure  
Sea Level Pressure 30.27 in    
Wind  
Wind Speed 4 mph (North)    
Max Wind Speed 15 mph    
Max Gust Speed 18 mph    
Visibility 10 miles    
Events      
T = Trace of Precipitation, MM = Missing Value Source: NWS Daily Summary

Daily Weather History Graph

Daily Weather History Graph

Search for Another Location

Airport:

Trip Planner

Search our weather history database for the weather conditions in past years. The results will help you decide how hot, cold, wet, or windy it might be!

Date:

Astronomy

Feb. 13, 2013 Rise Set
Actual Time 7:04 AM PST 5:42 PM PST
Civil Twilight 6:36 AM PST 6:10 PM PST
Nautical Twilight 6:04 AM PST 6:42 PM PST
Astronomical Twilight 5:33 AM PST 7:14 PM PST
Moon 8:36 AM PST (2/13) 9:52 PM PST (2/13)
Length of Visible Light 11h 33m
Length of Day
10h 37m
Waxing Crescent, 14% of the Moon is Illuminated
Feb 13
Waxing Crescent
Feb 17
First Quarter
Feb 25
Full
Mar 4
Last Quarter
Mar 11
New

Hourly Weather History & Observations

Time (PST) Temp. Windchill Dew Point Humidity Pressure Visibility Wind Dir Wind Speed Gust Speed Precip Events Conditions
12:53 AM 37.0 °F - 30.9 °F 79% 30.33 in 10.0 mi Calm Calm - N/A   Clear
1:53 AM 37.9 °F - 30.0 °F 73% 30.32 in 10.0 mi Calm Calm - N/A   Clear
2:53 AM 33.1 °F - 28.9 °F 85% 30.32 in 10.0 mi Calm Calm - N/A   Clear
3:53 AM 35.1 °F - 28.9 °F 78% 30.31 in 10.0 mi Calm Calm - N/A   Clear
4:53 AM 35.1 °F - 28.9 °F 78% 30.31 in 10.0 mi Calm Calm - N/A   Clear
5:53 AM 36.0 °F 33.3 °F 30.0 °F 79% 30.31 in 10.0 mi Variable 3.5 mph - N/A   Clear
6:53 AM 34.0 °F - 28.9 °F 82% 30.32 in 10.0 mi Calm Calm - N/A   Clear
7:53 AM 36.0 °F - 30.0 °F 79% 30.33 in 10.0 mi Calm Calm - N/A   Clear
8:53 AM 46.0 °F - 37.0 °F 71% 30.33 in 10.0 mi Calm Calm - N/A   Clear
9:53 AM 60.1 °F - 32.0 °F 35% 30.32 in 10.0 mi North 10.4 mph - N/A   Clear
10:53 AM 63.0 °F - 30.9 °F 30% 30.31 in 10.0 mi North 12.7 mph - N/A   Clear
11:53 AM 66.0 °F - 30.9 °F 27% 30.28 in 10.0 mi NNW 9.2 mph - N/A   Clear
12:53 PM 69.1 °F - 33.1 °F 26% 30.25 in 10.0 mi NNW 5.8 mph - N/A   Clear
1:53 PM 71.1 °F - 32.0 °F 24% 30.22 in 10.0 mi NNW 10.4 mph - N/A   Clear
2:53 PM 72.0 °F - 32.0 °F 23% 30.20 in 10.0 mi NNW 5.8 mph - N/A   Clear
3:53 PM 73.0 °F - 32.0 °F 22% 30.18 in 10.0 mi North 9.2 mph - N/A   Clear
4:53 PM 70.0 °F - 36.0 °F 29% 30.18 in 10.0 mi North 6.9 mph - N/A   Clear
5:53 PM 66.0 °F - 33.1 °F 29% 30.19 in 10.0 mi North 4.6 mph - N/A   Clear
6:53 PM 61.0 °F - 30.9 °F 32% 30.21 in 10.0 mi NNW 4.6 mph - N/A   Clear
7:53 PM 60.1 °F - 28.9 °F 31% 30.22 in 10.0 mi North 5.8 mph - N/A   Clear
8:53 PM 61.0 °F - 28.0 °F 29% 30.23 in 10.0 mi North 9.2 mph - N/A   Clear
9:53 PM 60.1 °F - 30.0 °F 32% 30.25 in 10.0 mi North 9.2 mph - N/A   Clear
10:53 PM 59.0 °F - 30.9 °F 35% 30.26 in 10.0 mi North 11.5 mph - N/A   Clear
11:53 PM 57.0 °F - 32.0 °F 39% 30.27 in 10.0 mi North 11.5 mph - N/A   Clear